一网星座-0178星 (ONEWEB-0178 )

导读 | 星芒AI

ONEWEB-0178 是 OneWeb 卫星星座计划中的一颗低轨通信卫星,旨在为全球提供高速互联网服务。该卫星采用标准化设计,由阿丽亚娜集团制造,搭载星间激光通信系统,以提升数据传输效率。2023 年 9 月,该卫星随 OneWeb-0174 至 OneWeb-0181 共 8 颗卫星一同由阿丽亚娜 6 号火箭从法属圭亚那库鲁发射升空。ONEWEB-0178 的部署进一步增强了 OneWeb 的全球宽带网络覆盖能力,特别是在偏远和农村地区。

基本信息
目录编号:
48075
目录名称:
ONEWEB-0178
国际标识:
2021-025AK
轨道中心:
EARTH
卫星名称:
一网星座-0178星
卫星全名:
一网星座-0178星 (ONEWEB-0178 )
卫星状态:
在轨 (已飞行1726 天)
发射日期:
2021-03-25 UTC
国别 :
英国 (GB)
星等 :
--
轨道信息
数据来源 国际轨道数据 AOE轨道数据
星历时间 2025-12-15T07:53:19+0800
19小时前
查看轨道信息
2025-12-15T21:00:00+0800
6小时前
查看轨道信息
半长轴 7587.898km 7587.888km
偏心率 0.0001662 0.0004376
轨道倾角 87.897° 87.902°
近地点辐角 81.221° 86.051°
升交点赤经 356.865° 356.761°
平近点角 278.911° 335.833°
近地点 1208.501km 1206.432km
远地点 1211.025km 1213.074km
周期 109.633分钟 109.633分钟
每日圈数 13.134712 13.134738
详细信息
平衡模式:
三轴稳定
覆盖范围:
全球
运营商:
一网卫星公司
运营商所在国:
英国
制造商(研发单位):
一网卫星公司
制造商所在国:
英国
使用方式:
暂无
卫星简介
OneWeb卫星网络由648颗重约125公斤的微型卫星组成,运行在1200公里的轨道上。 每颗卫星都能够提供至少每秒8千兆位的吞吐量,以使用其高吞吐量的Ku频段有效载荷为家庭和移动平台提供互联网接入。该卫星仍在工作。
2D轨道图
3D轨道图
轨道高度分析图
轨道倾角分析图
轨道综合分析图
查看轨道综合分析图